Location: Unspecified
(35.7250°N, 0.0000°E)
Time: 23:07:48
(UTC+00:00)

Vanguard 1 - Pass Details

Date: 26 June 2019
Orbit: 653 x 3830 km, 34.3° (Epoch: 12 October)

Event Time Altitude Azimuth Distance (km) Brightness Sun altitude
Rises 21:52:01 0° 199° (SSW) 7,567 14.2 -23.3°
Reaches altitude 10° 21:58:16 10° 189° (S) 6,786 13.9 -24.0°
Enters shadow 21:59:25 12° 187° (S) 6,651 13.8 -24.1°
Maximum altitude 22:16:09 29° 139° (SE) 5,345 - -25.8°
Exits shadow 22:18:23 29° 130° (SE) 5,309 13.2 -26.0°
Drops below altitude 10° 22:31:43 10° 88° (E) 6,008 13.8 -27.1°
Sets 22:36:36 0° 79° (ENE) 6,625 14.2 -27.5°
